Regional Weather Roundup
Issued by NWS

Home | Current Version | Previous Version | Text Only | Print | Product List | Glossary Off
Versions: 1 2 3 4 5 6 7 8 9 10 11 12 13 14 15 16 17 18 19 20 21 22 23 24 25 26 27 28 29 30 31 32 33 34 35 36 37 38 39 40 41 42 43 44 45 46 47 48 49 50

000
ASUS44 KMEG 061000
RWRTN
TENNESSEE HOURLY STATE WEATHER ROUNDUP
NATIONAL WEATHER SERVICE MEMPHIS TN
500 AM CDT MON JUL 06 2015

TNZ002-004-019-021-049-052-054-088>092-061100-
WEST TENNESSEE

CITY           SKY/WX    TMP DP  RH WIND       PRES   REMARKS
MEMPHIS INTL   CLEAR     71  68  90 S5        30.09R
NWS MEMPHIS      N/A     69 N/A N/A MISG        N/A
JACKSON        CLEAR     69  67  93 S3        30.08R
DYERSBURG        N/A    N/A N/A N/A MISG        N/A
$$

TNZ008-025-027-028-033-062-065-066-061100-
NORTH MIDDLE TENNESSEE

CITY           SKY/WX    TMP DP  RH WIND       PRES   REMARKS
NASHVILLE      CLEAR     69  69 100 CALM      30.10R
CLARKSVILLE    PTCLDY    69  68  96 CALM      30.09R FOG
COOKEVILLE     CLOUDY    70  70 100 CALM      30.11R
CROSSVILLE     CLOUDY    70  67  90 W5        30.15R FOG
$$

TNZ061-075-076-078-094-096-097-061100-
SOUTH MIDDLE TENNESSEE

CITY           SKY/WX    TMP DP  RH WIND       PRES   REMARKS
WINCHESTER     CLEAR     66  66 100 CALM      30.13R
SHELBYVILLE    MOCLDY    66  66 100 CALM        N/A  VSB 3/4
$$

TNZ017-018-042-046-047-061100-
NORTHEAST TENNESSEE

CITY           SKY/WX    TMP DP  RH WIND       PRES   REMARKS
TRI CITIES     CLOUDY    67  66  97 SW5       30.12R
$$

TNZ012-013-036-069-073-074-061100-
CENTRAL EAST TENNESSEE

CITY           SKY/WX    TMP DP  RH WIND       PRES   REMARKS
KNOXVILLE      CLOUDY    68  66  93 W3        30.10R
OAK RIDGE      CLOUDY    69  68  96 CALM      30.12R FOG
GATLINBURG     PTSUNNY   66  64  94 CALM      30.11R
$$

TNZ083-085-099-061100-
SOUTHEAST TENNESSEE

CITY           SKY/WX    TMP DP  RH WIND       PRES   REMARKS
CHATTANOOGA    MOCLDY    69  67  93 CALM      30.12R
$$

SKY/WX REPORTED AS FAIR MEANS FEW OR NO CLOUDS BELOW
12 THOUSAND FEET.



USA.gov is the U.S. government's official web portal to all federal, state and local government web resources and services.